Showing default

PLATERO, 58262

Orbit data source: Space-Track

PLATERO, 58262 is a Spanish payload satellite in SSO that was launched on Sat, 11 Nov 2023 UTC via an FALCON 9 launch vehicle from the Air Force Western Test Range (AFWTR). Payload-class satellites include a variety of spacecraft equipped with specific instruments for various scientific and technological missions. These include communications satellites like Starlink; space stations such as the ISS; scientific satellites like the Hubble; Earth observation satellites from companies like Planet Labs, Umbra, and HawkEye 360; GPS; miniature CubeSats for education and research; and military/defense satellites.

Loading next visibility...
Identifier
58262, 2023-174G
Orbit
SSO
Country
Flag of ESES / SPN
Related business
Manufacturer
Open Cosmos
Mission
Operational Commercial Imaging/Com
Bus & Motor
CUBESAT 6U, Unknown motor
Mass
~10 kg wet, ~10 kg dry
Launch date (UTC)
2023-11-11 (3 years ago)
Launch vehicle
FALCON 9
Launch site
Air Force Western Test Range (AFWTR)
Object type
Payload
Rocket body
Debris
Shape & HBR
Box + 2 Pan, 0.3 m
Radar Cross Section
0.098 m², Medium (>0.1 m² and < 1m²)

Expand to show TLE details & history
Last TLE update: 2 days ago

TLE from 2 days ago
0 PLATERO
1 58262U 23174G   26171.24210628  .00032866  00000-0  35723-3 0  9990
2 58262  97.3931 269.4257 0005162 100.7633 259.4207 15.63396763146667
Epoch: 2026-06-20T05:48Z
TLE epoch observation values (Epoch: 2026-06-20T05:48:37.982Z)
Latitude
-0.00002°
Longitude
-86.1921°
Altitude
381.645 km
Speed
7.681 km/s
True Right ascension
17h 57m 42s
True Declination
0° 00' 00"
Sunlit
Object was in full shadow at epoch
Visualization orbit readout
Latitude
Unknown
Longitude
Unknown
Altitude
Unknown
Speed
Unknown
Apparent Right ascension
Unknown
Apparent Declination
Unknown
Sunlit
N/A
Visualization observer readout
Local Sidereal Time
21:36:07
Azimuth
Unknown
Elevation
Unknown
Doppler factor
Unknown
Orbital elements
Apogee altitude
378.247 km
Perigee altitude
371.275 km
Semi-major axis
6,752.898 km
Eccentricity
0.00052
Inclination
97.3931°
RAAN
269.4257°
Arg. of periapsis
100.7633°
True anomaly
259.36256°
Mean anomaly
259.4207°
Eccentric anomaly
259.39163°
Mean motion
3.91118 °/min
Orbital period
92.04 mins
BSTAR
0.00035723
Loading maneuver chart data...
Computing Atmospheric mass density...

Documentation

Showing up to 5 results
|